Home   Weather   Brazzaville   Past weeks

Flag for Congo Past Weather in Brazzaville, Congo — Yesterday and Last 2 Weeks

Now
90 °F

Passing clouds.


Feels Like: 93 °F
Forecast: 72 / 87 °F
Wind: No wind

Location: Brazzaville / Maya-Maya

Current Time: Sep 29, 2016 at 7:50:00 PM

Latest Report: Sep 29, 2016 at 7:00 PM


Visibility: 5 mi

Pressure: 29.83 "Hg

Humidity: 49%

Dew Point: 68 °F

Location of BrazzavilleLocation

Past Weather in Brazzaville — Graph

°F

Brazzaville Temperature Yesterday

Maximum temperature yesterday: 82 °F (at 3:00 PM)
Minimum temperature yesterday: 73 °F (at 5:00 AM)
Average temperature yesterday: 77 °F

High & Low Weather Summary for the Past Weeks

 TemperatureHumidityPressure
High93 °F (Sep 17, 2:00 PM)94% (Sep 19, 3:00 AM)30.04 "Hg (Sep 19, 3:00 AM)
Low70 °F (Sep 21, 5:00 AM)39% (Sep 29, 3:00 PM)29.77 "Hg (Sep 29, 5:00 PM)
Average79 °F71%29.94 "Hg
* Reported Sep 14 6:00 PM — Sep 29 6:00 PM, Brazzaville, Weather by CustomWeather, © 2016

Note: Actual official high and low records may vary slightly from our data, if they occured in-between our weather recording intervals... More about our weather records

Advertising

Brazzaville Weather History for the Previous 24 Hours

Scroll right to see more
 ConditionsComfort  
Time TempWeatherWind HumidityBarometerVisibility
6:00 PM
Thu, Sep 29
90 °FClear.2 mph49%29.80 "Hg5 mi
5:00 PM93 °FPassing clouds.2 mph41%29.77 "Hg5 mi
4:00 PM93 °FPassing clouds.5 mph44%29.80 "Hg5 mi
3:00 PM93 °FClear.7 mph39%29.80 "Hg5 mi
2:00 PM93 °FPassing clouds.7 mph44%29.83 "Hg5 mi
1:00 PM88 °FPassing clouds.No wind59%29.86 "Hg5 mi
12:00 PM88 °FScattered clouds.No wind59%29.95 "Hg4 mi
11:00 AM88 °FPassing clouds.1 mph59%29.95 "Hg4 mi
10:00 AM82 °FScattered clouds.1 mph70%29.98 "Hg4 mi
9:00 AM79 °FPassing clouds.6 mph74%30.01 "Hg4 mi
8:00 AM75 °FClear.3 mph83%29.98 "Hg4 mi
7:00 AM72 °FClear.2 mph94%29.98 "Hg4 mi
6:00 AM70 °FPartly sunny.5 mph94%29.95 "Hg5 mi
5:00 AM70 °FClear.6 mph94%29.95 "Hg5 mi
4:00 AM72 °FClear.3 mph88%29.92 "Hg5 mi
3:00 AM72 °FClear.3 mph94%29.92 "Hg5 mi
2:00 AM73 °FClear.2 mph89%29.92 "Hg5 mi
1:00 AM73 °FClear.No wind89%29.92 "Hg5 mi
12:00 AM73 °FClear.No wind89%29.92 "Hg10 mi
11:00 PM
Wed, Sep 28
73 °FClear.2 mph89%29.95 "Hg10 mi
10:00 PM73 °FClear.5 mph89%29.92 "Hg10 mi
9:00 PM75 °FClear.No wind83%29.92 "Hg10 mi
8:00 PM77 °FClear.1 mph79%29.92 "Hg10 mi
7:00 PM79 °FPassing clouds.3 mph74%29.92 "HgN/A
Weather by CustomWeather, © 2016

See weather overviewHow to use our weather pages